When you browse on this site, cookies collect data to enhance your experience and personalize the content and advertising you see.
Visit our Privacy Policy to learn more. By continuing to use the site, you agree to this use of cookies and data.
  • In Lithuania
  • List of Countries
  • For 7 days
  • Water Temperature
  • Weather Map
  • Weather Widgets
  • user-avatar
    Login

    Hourly Weather Canillo

    Today, 30 May, Saturday

    Time Temperature Precipitation Wind Pressure Humidity
    00:00 +8°C° 0 mm 1 mps 618 mmHg 90%
    01:00 +8°C° 0 mm 1 mps 618 mmHg 90%
    02:00 +8°C° 0 mm 1 mps 618 mmHg 90%
    03:00 +8°C° 0 mm 1 mps 618 mmHg 89%
    04:00 +8°C° 0 mm 1 mps 618 mmHg 88%
    05:00 +9°C° 0 mm 1 mps 618 mmHg 88%
    06:00 +10°C° 0 mm 1 mps 619 mmHg 87%
    07:00 +12°C° 0 mm 1 mps 619 mmHg 78%
    08:00 +14°C° 0 mm 1 mps 620 mmHg 69%
    09:00 +16°C° 0 mm 1 mps 621 mmHg 61%
    10:00 +16°C° 0.2 mm 2 mps 621 mmHg 61%
    11:00 +16°C° 0.2 mm 2 mps 621 mmHg 61%
    12:00 +17°C° 0.2 mm 2 mps 621 mmHg 62%
    13:00 +16°C° 0.8 mm 2 mps 620 mmHg 66%
    14:00 +16°C° 0.8 mm 1 mps 620 mmHg 70%
    15:00 +15°C° 0.8 mm 1 mps 620 mmHg 74%
    16:00 +15°C° 0.5 mm 1 mps 619 mmHg 77%
    17:00 +14°C° 0.5 mm 1 mps 619 mmHg 81%
    18:00 +12°C° 0.5 mm 0 mps 618 mmHg 85%
    19:00 +12°C° 0.1 mm 1 mps 618 mmHg 88%
    20:00 +11°C° 0.1 mm 1 mps 618 mmHg 91%
    21:00 +9°C° 0.1 mm 1 mps 617 mmHg 94%
    22:00 +9°C° 0 mm 1 mps 617 mmHg 93%
    23:00 +9°C° 0 mm 1 mps 617 mmHg 93%

    Tomorrow, 31 May, Sunday

    Time Temperature Precipitation Wind Pressure Humidity
    00:00 +8°C° 0 mm 1 mps 617 mmHg 92%
    01:00 +8°C° 0 mm 1 mps 616 mmHg 91%
    02:00 +8°C° 0 mm 1 mps 616 mmHg 91%
    03:00 +8°C° 0 mm 1 mps 616 mmHg 90%
    04:00 +9°C° 0 mm 1 mps 616 mmHg 88%
    05:00 +10°C° 0 mm 1 mps 617 mmHg 86%
    06:00 +11°C° 0 mm 1 mps 617 mmHg 84%
    07:00 +13°C° 0 mm 1 mps 618 mmHg 73%
    08:00 +15°C° 0 mm 1 mps 619 mmHg 63%
    09:00 +18°C° 0 mm 1 mps 620 mmHg 52%
    10:00 +19°C° 0 mm 1 mps 620 mmHg 50%
    11:00 +18°C° 0 mm 2 mps 620 mmHg 49%
    12:00 +19°C° 0 mm 2 mps 620 mmHg 47%
    13:00 +19°C° 0.6 mm 2 mps 620 mmHg 54%
    14:00 +18°C° 0.6 mm 2 mps 620 mmHg 61%
    15:00 +18°C° 0.6 mm 1 mps 619 mmHg 67%
    16:00 +16°C° 0.7 mm 1 mps 619 mmHg 74%
    17:00 +15°C° 0.7 mm 1 mps 618 mmHg 80%
    18:00 +14°C° 0.7 mm 1 mps 618 mmHg 86%
    19:00 +13°C° 0.3 mm 1 mps 618 mmHg 89%
    20:00 +12°C° 0.3 mm 1 mps 617 mmHg 92%
    21:00 +11°C° 0.3 mm 1 mps 617 mmHg 95%
    22:00 +11°C° 0.3 mm 1 mps 617 mmHg 94%
    23:00 +11°C° 0.3 mm 1 mps 617 mmHg 93%

    Day after tomorrow, 1 June, Monday

    Time Temperature Precipitation Wind Pressure Humidity
    00:00 +10°C° 0.3 mm 1 mps 617 mmHg 92%
    01:00 +10°C° 0.1 mm 1 mps 617 mmHg 91%
    02:00 +10°C° 0.1 mm 1 mps 617 mmHg 91%
    03:00 +10°C° 0.1 mm 1 mps 617 mmHg 90%
    04:00 +11°C° 0 mm 1 mps 617 mmHg 88%
    05:00 +11°C° 0 mm 1 mps 617 mmHg 85%
    06:00 +12°C° 0 mm 1 mps 618 mmHg 83%
    07:00 +14°C° 0.4 mm 1 mps 619 mmHg 78%
    08:00 +15°C° 0.4 mm 1 mps 619 mmHg 74%
    09:00 +16°C° 0.4 mm 1 mps 620 mmHg 70%
    10:00 +16°C° 1.2 mm 1 mps 620 mmHg 74%
    11:00 +15°C° 1.2 mm 1 mps 619 mmHg 77%
    12:00 +15°C° 1.2 mm 1 mps 619 mmHg 81%
    13:00 +14°C° 1.7 mm 1 mps 619 mmHg 83%
    14:00 +13°C° 1.7 mm 1 mps 619 mmHg 86%
    15:00 +12°C° 1.7 mm 0 mps 618 mmHg 88%
    16:00 +13°C° 1 mm 1 mps 618 mmHg 87%
    17:00 +13°C° 1 mm 1 mps 618 mmHg 87%
    18:00 +13°C° 1 mm 1 mps 618 mmHg 86%
    19:00 +12°C° 0 mm 1 mps 618 mmHg 87%
    20:00 +11°C° 0 mm 1 mps 618 mmHg 87%
    21:00 +10°C° 0 mm 1 mps 618 mmHg 88%
    22:00 +10°C° 0 mm 1 mps 618 mmHg 88%
    23:00 +10°C° 0 mm 1 mps 617 mmHg 88%

    2 June, Tuesday

    Time Temperature Precipitation Wind Pressure Humidity
    00:00 +9°C° 0 mm 1 mps 617 mmHg 87%
    01:00 +9°C° 0 mm 1 mps 617 mmHg 88%
    02:00 +9°C° 0 mm 1 mps 617 mmHg 88%
    03:00 +9°C° 0 mm 1 mps 617 mmHg 88%
    04:00 +10°C° 0.1 mm 1 mps 617 mmHg 86%
    05:00 +11°C° 0.1 mm 1 mps 618 mmHg 85%
    06:00 +12°C° 0.1 mm 1 mps 618 mmHg 83%
    07:00 +14°C° 0.4 mm 1 mps 619 mmHg 77%
    08:00 +15°C° 0.4 mm 1 mps 619 mmHg 71%
    09:00 +18°C° 0.4 mm 1 mps 620 mmHg 64%
    10:00 +18°C° 0.4 mm 1 mps 620 mmHg 61%
    11:00 +18°C° 0.4 mm 2 mps 620 mmHg 58%
    12:00 +18°C° 0.4 mm 2 mps 619 mmHg 55%
    13:00 +17°C° 0.7 mm 2 mps 619 mmHg 60%
    14:00 +17°C° 0.7 mm 2 mps 618 mmHg 65%
    15:00 +16°C° 0.7 mm 1 mps 617 mmHg 69%
    16:00 +15°C° 0.4 mm 1 mps 617 mmHg 74%
    17:00 +15°C° 0.4 mm 1 mps 617 mmHg 79%
    18:00 +14°C° 0.4 mm 1 mps 616 mmHg 83%
    19:00 +13°C° 0.2 mm 1 mps 616 mmHg 85%
    20:00 +11°C° 0.2 mm 0 mps 616 mmHg 87%
    21:00 +10°C° 0.2 mm 0 mps 615 mmHg 89%
    22:00 +10°C° 1 mm 0 mps 615 mmHg 91%
    23:00 +11°C° 1 mm 1 mps 615 mmHg 92%

    3 June, Wednesday

    Time Temperature Precipitation Wind Pressure Humidity
    00:00 +10°C° 1 mm 1 mps 615 mmHg 94%
    01:00 +10°C° 0.6 mm 1 mps 614 mmHg 93%
    02:00 +10°C° 0.6 mm 1 mps 614 mmHg 92%
    03:00 +10°C° 0.6 mm 1 mps 614 mmHg 92%
    04:00 +9°C° 0.1 mm 0 mps 613 mmHg 92%
    05:00 +10°C° 0.1 mm 0 mps 613 mmHg 92%
    06:00 +10°C° 0.1 mm 0 mps 613 mmHg 92%
    07:00 +11°C° 0.4 mm 0 mps 614 mmHg 90%
    08:00 +13°C° 0.4 mm 1 mps 614 mmHg 88%
    09:00 +14°C° 0.4 mm 1 mps 614 mmHg 85%
    10:00 +14°C° 1.1 mm 1 mps 614 mmHg 85%
    11:00 +14°C° 1.1 mm 2 mps 614 mmHg 86%
    12:00 +14°C° 1.1 mm 2 mps 614 mmHg 86%
    13:00 +14°C° 1.4 mm 2 mps 613 mmHg 86%
    14:00 +14°C° 1.4 mm 1 mps 613 mmHg 87%
    15:00 +14°C° 1.4 mm 1 mps 613 mmHg 88%
    16:00 +13°C° 0.7 mm 1 mps 613 mmHg 88%
    17:00 +13°C° 0.7 mm 1 mps 613 mmHg 89%
    18:00 +13°C° 0.7 mm 1 mps 612 mmHg 89%
    19:00 +12°C° 0.6 mm 1 mps 612 mmHg 91%
    20:00 +11°C° 0.6 mm 1 mps 612 mmHg 93%
    21:00 +10°C° 0.6 mm 1 mps 612 mmHg 95%
    22:00 +10°C° 3.2 mm 1 mps 612 mmHg 96%
    23:00 +10°C° 3.2 mm 1 mps 612 mmHg 96%

    4 June, Thursday

    Time Temperature Precipitation Wind Pressure Humidity
    00:00 +10°C° 3.2 mm 1 mps 612 mmHg 97%
    01:00 +10°C° 0.4 mm 1 mps 612 mmHg 97%
    02:00 +9°C° 0.4 mm 1 mps 611 mmHg 96%
    03:00 +9°C° 0.4 mm 1 mps 611 mmHg 96%
    04:00 +9°C° 0 mm 1 mps 611 mmHg 95%
    05:00 +10°C° 0 mm 1 mps 612 mmHg 94%
    06:00 +11°C° 0 mm 1 mps 612 mmHg 93%
    07:00 +12°C° 0 mm 1 mps 613 mmHg 87%
    08:00 +14°C° 0 mm 1 mps 614 mmHg 80%
    09:00 +15°C° 0 mm 2 mps 615 mmHg 74%
    10:00 +16°C° 0.5 mm 2 mps 615 mmHg 73%
    11:00 +16°C° 0.5 mm 2 mps 615 mmHg 73%
    12:00 +17°C° 0.5 mm 2 mps 615 mmHg 72%
    13:00 +17°C° 0.8 mm 2 mps 615 mmHg 75%
    14:00 +16°C° 0.8 mm 2 mps 614 mmHg 78%
    15:00 +16°C° 0.8 mm 2 mps 614 mmHg 81%
    16:00 +15°C° 0.7 mm 2 mps 614 mmHg 83%
    17:00 +15°C° 0.7 mm 1 mps 614 mmHg 85%
    18:00 +14°C° 0.7 mm 1 mps 614 mmHg 87%
    19:00 +13°C° 0.2 mm 1 mps 613 mmHg 89%
    20:00 +12°C° 0.2 mm 1 mps 613 mmHg 91%
    21:00 +10°C° 0.2 mm 2 mps 613 mmHg 93%
    22:00 +11°C° 0.3 mm 1 mps 613 mmHg 94%
    23:00 +11°C° 0.3 mm 1 mps 613 mmHg 95%
    Show more